Regional Weather Roundup
Issued by NWS

Home | Current Version | Previous Version | Text Only | Print | Product List | Glossary Off
Versions: 1 2 3 4 5 6 7 8 9 10 11 12 13 14 15 16 17 18 19 20 21 22 23 24 25 26 27 28 29 30 31 32 33 34 35 36 37 38 39 40 41 42 43 44 45 46 47 48 49 50

000
ASUS43 KLSX 020407
RWRMO

WEATHER SUMMARY FOR MISSOURI
NATIONAL WEATHER SERVICE SPRINGFIELD MO
1100 PM CDT WED JUL 01 2015

NOTE: "FAIR" INDICATES FEW OR NO CLOUDS BELOW 12,000 FEET WITH NO
       SIGNIFICANT WEATHER AND/OR OBSTRUCTIONS TO VISIBILITY.
       CURRENT SKY AND/OR WEATHER CONDITIONS ARE NOT AVAILABLE FOR
       CHILLICOTHE AND FARMINGTON.

MOZ001>031-035>038-043-044-053-054-020500-
...NORTHERN AND WESTERN MISSOURI...

CITY           SKY/WX    TMP DP  RH WIND       PRES   REMARKS
KANSAS CTY INT PTCLDY    77  73  87 NE9       29.84R
KANSAS C DTWN  MOCLDY    77  74  90 E8        29.82R
LEE`S SUMMIT   CLOUDY    72  66  81 E5        29.83R
ST JOSEPH      CLOUDY    76  70  82 E15G22    29.85R
CHILLICOTHE      N/A     75  69  81 NE9       29.89R
KIRKSVILLE     LGT RAIN  69  67  93 E12       29.93R FOG

$$
MOZ066>068-077>081-088>096-101>105-020500-
...SOUTHWEST MISSOURI...

CITY           SKY/WX    TMP DP  RH WIND       PRES   REMARKS
SPRINGFIELD    CLOUDY    79  71  76 SW17      29.84F
JOPLIN         PTCLDY    83  70  64 SW16G29   29.81R

$$
MOZ032>034-039>042-045>050-055>058-069>072-020500-
...CENTRAL MISSOURI...

CITY           SKY/WX    TMP DP  RH WIND       PRES   REMARKS
COLUMBIA       CLOUDY    71  69  93 NE10      29.87S
JEFFERSON CITY LGT RAIN  72  70  93 CALM      29.84F
ROLLA          TSTM      74  72  93 VRB3      29.86R
SEDALIA        CLOUDY    72  68  87 E6        29.86R
WHITEMAN AFB   MOCLDY    72  71  95 E8        29.84R
WARRENSBURG    CLOUDY    72  70  94 NE5       29.82R
OSAGE BEACH    CLOUDY    70  66  88 SW14      29.89S THUNDER

$$
MOZ051-052-059>065-020500-
...EAST CENTRAL MISSOURI...

CITY           SKY/WX    TMP DP  RH WIND       PRES   REMARKS
ST LOUIS INTL  MOCLDY    73  70  90 E3        29.87S
SPIRIT OF STL  LGT RAIN  72  70  94 S5        29.85F
ST CHARLES     MOCLDY    73  71  93 N5        29.87R

$$
MOZ072>076-082>087-097>100-106>115-020500-
...SOUTH CENTRAL AND SOUTHEAST MISSOURI...

CITY           SKY/WX    TMP DP  RH WIND       PRES   REMARKS
CAPE GIRARDEAU PTCLDY    74  71  91 S3        29.87S
FARMINGTON     CLOUDY    73  70  88 S13G18    29.88F
WEST PLAINS    CLOUDY    76  73  91 S6        29.89R

$$


USA.gov is the U.S. government's official web portal to all federal, state and local government web resources and services.